| time (UTC) | temp F | wind direction | speed knots | gust knots | rain 1hr in | rain 24hr in | rain mn in | humidity % | barometer mb |
| 20260503192804 | 79 | 354 | 0.9 | 2.6 | 0.00 | 0.00 | 0.00 | 28 | 1010.8 |
| 20260503192305 | 78 | 353 | 1.7 | 2.6 | 0.00 | 0.00 | 0.00 | 30 | 1010.9 |
| 20260503191804 | 77 | 2 | 0.9 | 1.7 | 0.00 | 0.00 | 0.00 | 30 | 1011.0 |
| 20260503191303 | 76 | 8 | 1.7 | 2.6 | 0.00 | 0.00 | 0.00 | 31 | 1011.1 |
| 20260503190804 | 77 | 31 | 0.9 | 2.6 | 0.00 | 0.00 | 0.00 | 31 | 1011.1 |
| 20260503185803 | 76 | 20 | 1.7 | 2.6 | 0.00 | 0.00 | 0.00 | 34 | 1011.2 |
| 20260503185304 | 75 | 3 | 1.7 | 2.6 | 0.00 | 0.00 | 0.00 | 33 | 1011.3 |
| 20260503184304 | 75 | 19 | 0.9 | 2.6 | 0.00 | 0.00 | 0.00 | 34 | 1011.4 |
| 20260503183304 | 74 | 26 | 1.7 | 2.6 | 0.00 | 0.00 | 0.00 | 34 | 1011.5 |
| 20260503182803 | 73 | 49 | 1.7 | 2.6 | 0.00 | 0.00 | 0.00 | 35 | 1011.6 |
| 20260503182305 | 73 | 22 | 1.7 | 2.6 | 0.00 | 0.00 | 0.00 | 37 | 1011.6 |
| 20260503181304 | 72 | 19 | 1.7 | 2.6 | 0.00 | 0.00 | 0.00 | 39 | 1011.7 |
| 20260503180803 | 72 | 22 | 1.7 | 2.6 | 0.00 | 0.00 | 0.00 | 39 | 1011.7 |
| 20260503180303 | 71 | 2 | 1.7 | 2.6 | 0.00 | 0.00 | 0.00 | 38 | 1011.9 |
| 20260503175803 | 71 | 65 | 0.9 | 1.7 | 0.00 | 0.00 | 0.00 | 41 | 1012.0 |
| 20260503175305 | 70 | 18 | 0.9 | 2.6 | 0.00 | 0.00 | 0.00 | 41 | 1012.0 |
| 20260503174804 | 70 | 52 | 1.7 | 2.6 | 0.00 | 0.00 | 0.00 | 40 | 1012.0 |
| 20260503174304 | 68 | 29 | 1.7 | 2.6 | 0.00 | 0.00 | 0.00 | 44 | 1012.1 |
| 20260503173804 | 67 | 35 | 1.7 | 2.6 | 0.00 | 0.00 | 0.00 | 47 | 1012.2 |
| 20260503173304 | 67 | 27 | 1.7 | 2.6 | 0.00 | 0.00 | 0.00 | 48 | 1012.2 |
| 20260503172803 | 66 | 25 | 1.7 | 2.6 | 0.00 | 0.00 | 0.00 | 49 | 1012.2 |
| 20260503172305 | 65 | 17 | 1.7 | 2.6 | 0.00 | 0.00 | 0.00 | 49 | 1012.3 |
| 20260503171803 | 65 | 22 | 1.7 | 2.6 | 0.00 | 0.00 | 0.00 | 50 | 1012.3 |
| 20260503171303 | 65 | 33 | 1.7 | 2.6 | 0.00 | 0.00 | 0.00 | 50 | 1012.3 |
| 20260503170804 | 65 | 21 | 1.7 | 2.6 | 0.00 | 0.00 | 0.00 | 49 | 1012.3 |
| 20260503150803 | 60 | 97 | 0.9 | 1.7 | 0.00 | 0.00 | 0.00 | 58 | 1013.2 |
| 20260503150303 | 60 | 104 | 1.7 | 2.6 | 0.00 | 0.00 | 0.00 | 59 | 1013.2 |
| 20260503131303 | 53 | 144 | 1.7 | 2.6 | 0.00 | 0.00 | 0.00 | 65 | 1012.9 |
| 20260503130804 | 54 | 134 | 1.7 | 2.6 | 0.00 | 0.00 | 0.00 | 66 | 1012.9 |
| 20260503130304 | 53 | 154 | 1.7 | 2.6 | 0.00 | 0.00 | 0.00 | 67 | 1012.8 |
| 20260503110803 | 55 | 154 | 1.7 | 2.6 | 0.00 | 0.00 | 0.00 | 68 | 1012.7 |
| 20260503110303 | 55 | 162 | 1.7 | 2.6 | 0.00 | 0.00 | 0.00 | 67 | 1012.8 |
| 20260503090304 | 57 | 152 | 1.7 | 2.6 | 0.00 | 0.00 | 0.00 | 70 | 1012.7 |
| 20260503081304 | 59 | 138 | 1.7 | 1.7 | 0.00 | 0.00 | 0.00 | 70 | 1012.4 |
| 20260503080804 | 59 | 143 | 1.7 | 1.7 | 0.00 | 0.00 | 0.00 | 70 | 1012.4 |
| 20260503080303 | 59 | 158 | 1.7 | 2.6 | 0.00 | 0.00 | 0.00 | 70 | 1012.4 |
| 20260503072803 | 59 | 149 | 1.7 | 2.6 | 0.00 | 0.00 | 0.00 | 69 | 1012.6 |
| 20260503071805 | 60 | 155 | 1.7 | 1.7 | 0.00 | 0.00 | 0.00 | 68 | 1012.5 |
| 20260503071304 | 61 | 145 | 1.7 | 1.7 | 0.00 | 0.00 | 0.00 | 67 | 1012.5 |
| 20260503070804 | 61 | 148 | 0.9 | 1.7 | 0.00 | 0.00 | 0.00 | 66 | 1012.5 |
| 20260503070304 | 61 | 135 | 0.9 | 1.7 | 0.00 | 0.00 | 0.00 | 65 | 1012.5 |
| 20260503060304 | 65 | 307 | 1.7 | 2.6 | 0.00 | 0.00 | 0.00 | 58 | 1012.2 |
| 20260503054804 | 66 | 289 | 0.9 | 5.2 | 0.00 | 0.00 | 0.00 | 56 | 1012.2 |
| 20260503054304 | 67 | 293 | 3.5 | 7.8 | 0.00 | 0.00 | 0.00 | 54 | 1012.1 |
| 20260503053803 | 66 | 264 | 6.1 | 7.8 | 0.00 | 0.00 | 0.00 | 55 | 1012.2 |
| 20260503053304 | 66 | 262 | 3.5 | 6.1 | 0.00 | 0.00 | 0.00 | 56 | 1012.2 |
| 20260503052804 | 66 | 316 | 2.6 | 7.0 | 0.00 | 0.00 | 0.00 | 55 | 1012.2 |
| 20260503052305 | 67 | 299 | 1.7 | 6.1 | 0.00 | 0.00 | 0.00 | 55 | 1012.3 |
| 20260503051803 | 67 | 294 | 4.3 | 7.0 | 0.00 | 0.00 | 0.00 | 53 | 1012.2 |
| 20260503051304 | 67 | 290 | 4.3 | 13.0 | 0.00 | 0.00 | 0.00 | 53 | 1012.2 |
| 20260503050804 | 67 | 306 | 6.1 | 13.9 | 0.00 | 0.00 | 0.00 | 53 | 1012.1 |
| 20260503050303 | 67 | 272 | 7.0 | 13.9 | 0.00 | 0.00 | 0.00 | 52 | 1012.0 |
| 20260503045305 | 68 | 278 | 6.1 | 13.9 | 0.00 | 0.00 | 0.00 | 52 | 1011.9 |
| 20260503044804 | 68 | 287 | 7.0 | 13.9 | 0.00 | 0.00 | 0.00 | 52 | 1011.9 |
| 20260503044305 | 68 | 277 | 9.6 | 15.6 | 0.00 | 0.00 | 0.00 | 52 | 1011.9 |
| 20260503043804 | 68 | 269 | 9.6 | 14.8 | 0.00 | 0.00 | 0.00 | 52 | 1011.9 |
| 20260503043304 | 67 | 280 | 9.6 | 14.8 | 0.00 | 0.00 | 0.00 | 52 | 1011.8 |
| 20260503042305 | 67 | 283 | 7.8 | 14.8 | 0.00 | 0.00 | 0.00 | 54 | 1011.9 |
| 20260503041803 | 67 | 291 | 8.7 | 17.4 | 0.00 | 0.00 | 0.00 | 54 | 1011.8 |
| 20260503041304 | 67 | 303 | 7.8 | 14.8 | 0.00 | 0.00 | 0.00 | 53 | 1011.7 |
| 20260503040804 | 67 | 288 | 7.8 | 14.8 | 0.00 | 0.00 | 0.00 | 53 | 1011.8 |
| 20260503040303 | 68 | 294 | 6.1 | 14.8 | 0.00 | 0.00 | 0.00 | 53 | 1011.7 |
| 20260503035305 | 67 | 285 | 8.7 | 18.2 | 0.00 | 0.00 | 0.00 | 52 | 1011.5 |
| 20260503034804 | 67 | 277 | 7.0 | 13.9 | 0.00 | 0.00 | 0.00 | 53 | 1011.4 |
| 20260503034303 | 67 | 281 | 7.8 | 13.0 | 0.00 | 0.00 | 0.00 | 54 | 1011.4 |
| 20260503033804 | 67 | 301 | 6.1 | 8.7 | 0.00 | 0.00 | 0.00 | 53 | 1011.2 |
| 20260503033304 | 67 | 286 | 6.1 | 11.3 | 0.00 | 0.00 | 0.00 | 54 | 1011.0 |
| 20260503032803 | 67 | 270 | 8.7 | 15.6 | 0.00 | 0.00 | 0.00 | 54 | 1010.9 |
| 20260503032304 | 67 | 287 | 8.7 | 14.8 | 0.00 | 0.00 | 0.00 | 54 | 1010.7 |
| 20260503031805 | 67 | 289 | 8.7 | 13.0 | 0.00 | 0.00 | 0.00 | 54 | 1010.6 |
| 20260503030803 | 67 | 276 | 6.1 | 12.2 | 0.00 | 0.00 | 0.00 | 54 | 1010.4 |
| 20260503030304 | 67 | 277 | 7.8 | 13.0 | 0.00 | 0.00 | 0.00 | 53 | 1010.3 |
| 20260503025305 | 68 | 274 | 5.2 | 11.3 | 0.00 | 0.00 | 0.00 | 53 | 1010.2 |
| 20260503024804 | 68 | 273 | 5.2 | 10.4 | 0.00 | 0.00 | 0.00 | 52 | 1010.2 |
| 20260503024304 | 68 | 284 | 5.2 | 10.4 | 0.00 | 0.00 | 0.00 | 51 | 1010.1 |
| 20260503023804 | 68 | 294 | 5.2 | 8.7 | 0.00 | 0.00 | 0.00 | 51 | 1010.1 |
| 20260503023304 | 69 | 269 | 5.2 | 7.8 | 0.00 | 0.00 | 0.00 | 51 | 1010.0 |
| 20260503022804 | 69 | 276 | 5.2 | 8.7 | 0.00 | 0.00 | 0.00 | 51 | 1010.0 |
| 20260503022305 | 68 | 269 | 4.3 | 10.4 | 0.00 | 0.00 | 0.00 | 51 | 1010.0 |
| 20260503021804 | 69 | 270 | 5.2 | 10.4 | 0.00 | 0.00 | 0.00 | 50 | 1009.9 |
| 20260503021304 | 69 | 272 | 5.2 | 10.4 | 0.00 | 0.00 | 0.00 | 50 | 1009.9 |
| 20260503020804 | 69 | 282 | 5.2 | 11.3 | 0.00 | 0.00 | 0.00 | 50 | 1009.8 |
| 20260503020303 | 69 | 281 | 5.2 | 11.3 | 0.00 | 0.00 | 0.00 | 50 | 1009.8 |
| 20260503015804 | 69 | 273 | 5.2 | 10.4 | 0.00 | 0.00 | 0.00 | 50 | 1009.7 |
| 20260503015305 | 69 | 289 | 6.1 | 10.4 | 0.00 | 0.00 | 0.00 | 50 | 1009.7 |
| 20260503014803 | 69 | 274 | 5.2 | 10.4 | 0.00 | 0.00 | 0.00 | 51 | 1009.7 |
| 20260503014303 | 69 | 265 | 5.2 | 7.8 | 0.00 | 0.00 | 0.00 | 50 | 1009.7 |
| 20260503013804 | 69 | 287 | 4.3 | 7.0 | 0.00 | 0.00 | 0.00 | 50 | 1009.7 |
| 20260503013303 | 69 | 274 | 4.3 | 7.8 | 0.00 | 0.00 | 0.00 | 50 | 1009.7 |
| 20260503012305 | 70 | 269 | 4.3 | 7.8 | 0.00 | 0.00 | 0.00 | 48 | 1009.7 |
| 20260503010804 | 71 | 286 | 2.6 | 6.1 | 0.00 | 0.00 | 0.00 | 48 | 1009.7 |
| 20260503010304 | 71 | 265 | 2.6 | 4.3 | 0.00 | 0.00 | 0.00 | 47 | 1009.7 |
| 20260503005804 | 71 | 271 | 2.6 | 6.1 | 0.00 | 0.00 | 0.00 | 46 | 1009.7 |
| 20260503005305 | 72 | 271 | 2.6 | 6.1 | 0.00 | 0.00 | 0.00 | 44 | 1009.7 |
| 20260503004804 | 72 | 302 | 1.7 | 6.1 | 0.00 | 0.00 | 0.00 | 44 | 1009.7 |
| 20260503004304 | 73 | 293 | 2.6 | 4.3 | 0.00 | 0.00 | 0.00 | 42 | 1009.7 |
| 20260503003804 | 75 | 283 | 1.7 | 2.6 | 0.00 | 0.00 | 0.00 | 42 | 1009.7 |
| 20260503002305 | 76 | 287 | 1.7 | 1.7 | 0.00 | 0.00 | 0.00 | 38 | 1009.6 |
| 20260503001804 | 75 | 283 | 0.9 | 1.7 | 0.00 | 0.00 | 0.00 | 42 | 1009.7 |
| 20260503001304 | 75 | 307 | 0.9 | 1.7 | 0.00 | 0.00 | 0.00 | 42 | 1009.6 |
| 20260503000804 | 74 | 316 | 0.9 | 4.3 | 0.00 | 0.00 | 0.00 | 43 | 1009.6 |
| 20260503000304 | 74 | 259 | 1.7 | 4.3 | 0.00 | 0.00 | 0.00 | 43 | 1009.7 |
| 20260502235305 | 75 | 318 | 1.7 | 2.6 | 0.00 | 0.00 | 0.00 | 41 | 1009.7 |
| 20260502234304 | 76 | 320 | 0.9 | 1.7 | 0.00 | 0.00 | 0.00 | 41 | 1009.8 |
| 20260502233804 | 76 | 318 | 1.7 | 4.3 | 0.00 | 0.00 | 0.00 | 39 | 1009.9 |
| 20260502233304 | 76 | 275 | 1.7 | 2.6 | 0.00 | 0.00 | 0.00 | 39 | 1009.9 |
| 20260502232304 | 76 | 283 | 1.7 | 2.6 | 0.00 | 0.00 | 0.00 | 42 | 1010.1 |
| 20260502231304 | 73 | 244 | 1.7 | 2.6 | 0.00 | 0.00 | 0.00 | 44 | 1010.3 |
| 20260502230304 | 72 | 258 | 2.6 | 4.3 | 0.00 | 0.00 | 0.00 | 45 | 1010.4 |
| 20260502225804 | 71 | 286 | 1.7 | 4.3 | 0.00 | 0.00 | 0.00 | 46 | 1010.5 |
| 20260502225304 | 71 | 285 | 2.6 | 5.2 | 0.00 | 0.00 | 0.00 | 46 | 1010.6 |
| 20260502224803 | 71 | 269 | 2.6 | 6.1 | 0.00 | 0.00 | 0.00 | 45 | 1010.6 |
| 20260502224304 | 70 | 271 | 2.6 | 6.1 | 0.00 | 0.00 | 0.00 | 46 | 1010.8 |
| 20260502223804 | 71 | 293 | 2.6 | 7.0 | 0.00 | 0.00 | 0.00 | 46 | 1010.9 |
| 20260502223303 | 71 | 295 | 3.5 | 7.0 | 0.00 | 0.00 | 0.00 | 45 | 1011.0 |
| 20260502222803 | 70 | 296 | 2.6 | 7.0 | 0.00 | 0.00 | 0.00 | 46 | 1011.1 |
| 20260502222305 | 70 | 295 | 2.6 | 5.2 | 0.00 | 0.00 | 0.00 | 46 | 1011.2 |
| 20260502221803 | 70 | 329 | 1.7 | 6.1 | 0.00 | 0.00 | 0.00 | 47 | 1011.3 |
| 20260502221304 | 69 | 310 | 3.5 | 7.0 | 0.00 | 0.00 | 0.00 | 48 | 1011.4 |
| 20260502220804 | 67 | 312 | 4.3 | 10.4 | 0.00 | 0.00 | 0.00 | 49 | 1011.4 |
| 20260502220304 | 67 | 298 | 6.1 | 12.2 | 0.00 | 0.00 | 0.00 | 48 | 1011.5 |
| 20260502215305 | 69 | 292 | 4.3 | 7.8 | 0.00 | 0.00 | 0.00 | 48 | 1011.7 |
| 20260502214804 | 69 | 282 | 3.5 | 6.1 | 0.00 | 0.00 | 0.00 | 48 | 1011.6 |
| 20260502214304 | 69 | 329 | 1.7 | 4.3 | 0.00 | 0.00 | 0.00 | 49 | 1011.7 |
| 20260502213804 | 68 | 284 | 1.7 | 6.1 | 0.00 | 0.00 | 0.00 | 50 | 1011.8 |
| 20260502213304 | 68 | 304 | 2.6 | 6.1 | 0.00 | 0.00 | 0.00 | 50 | 1012.0 |
| 20260502212804 | 68 | 333 | 1.7 | 5.2 | 0.00 | 0.00 | 0.00 | 52 | 1012.0 |
| 20260502212305 | 66 | 239 | 3.5 | 7.8 | 0.00 | 0.00 | 0.00 | 54 | 1012.0 |
| 20260502211804 | 65 | 318 | 2.6 | 5.2 | 0.00 | 0.00 | 0.00 | 55 | 1012.0 |
| 20260502211303 | 65 | 270 | 3.5 | 5.2 | 0.00 | 0.00 | 0.00 | 55 | 1012.1 |
| 20260502210804 | 65 | 286 | 2.6 | 4.3 | 0.00 | 0.00 | 0.00 | 55 | 1012.2 |
| 20260502205804 | 64 | 274 | 4.3 | 7.8 | 0.00 | 0.00 | 0.00 | 55 | 1012.5 |
| 20260502205305 | 64 | 297 | 3.5 | 7.0 | 0.00 | 0.00 | 0.00 | 55 | 1012.5 |
| 20260502204304 | 65 | 301 | 1.7 | 5.2 | 0.00 | 0.00 | 0.00 | 54 | 1012.4 |
| 20260502203804 | 65 | 317 | 1.7 | 5.2 | 0.00 | 0.00 | 0.00 | 52 | 1012.5 |
| 20260502203303 | 67 | 320 | 2.6 | 6.1 | 0.00 | 0.00 | 0.00 | 50 | 1012.6 |
| 20260502202804 | 68 | 20 | 1.7 | 2.6 | 0.00 | 0.00 | 0.00 | 50 | 1012.6 |
| 20260502202305 | 67 | 350 | 0.9 | 2.6 | 0.00 | 0.00 | 0.00 | 52 | 1012.6 |
| 20260502201805 | 67 | 7 | 1.7 | 4.3 | 0.00 | 0.00 | 0.00 | 52 | 1012.6 |
| 20260502201303 | 66 | 356 | 1.7 | 2.6 | 0.00 | 0.00 | 0.00 | 52 | 1012.6 |
| 20260502200804 | 65 | 326 | 0.9 | 4.3 | 0.00 | 0.00 | 0.00 | 53 | 1012.6 |
| 20260502200304 | 65 | 327 | 1.7 | 4.3 | 0.00 | 0.00 | 0.00 | 53 | 1012.6 |
| 20260502195804 | 64 | 77 | 1.7 | 5.2 | 0.00 | 0.00 | 0.00 | 63 | 1012.5 |
| 20260502195305 | 62 | 178 | 0.9 | 1.7 | 0.00 | 0.00 | 0.00 | 64 | 1012.5 |
| 20260502194804 | 61 | 158 | 1.7 | 1.7 | 0.00 | 0.00 | 0.00 | 66 | 1012.7 |
| 20260502193804 | 59 | 188 | 2.6 | 4.3 | 0.00 | 0.00 | 0.00 | 66 | 1012.9 |